Flag for U.S.A. Weather past 2 weeks in Fort Wayne, Indiana, U.S.A.

Now
27 °F

Ice fog.


Feels Like: 20 °F
Forecast: 26 / 41 °F
Wind: 7 mph from East

Location: Fort Wayne International Airport

Current Time: Dec 22, 2014 at 9:27:00 AM

Latest Report: Dec 22, 2014 at 8:54 AM


Visibility: 4 mi

Pressure: 30.04 "Hg

Humidity: 89%

Dew point: 24 °F

Location of Fort WayneLocation

Historic Weather in Fort Wayne — Graph

°F

Fort Wayne temperature yesterday

Maximum temperature yesterday: 35 °F (at 1:54 PM)
Minimum temperature yesterday: 26 °F (at 11:54 PM)
Average temperature yesterday: 30 °F

Past Weeks' High & Low Weather Summary

 TemperatureHumidityPressure
High52 °F (Dec 14, 1:54 PM)97% (Dec 8, 8:54 PM)30.69 "Hg (Dec 8, 8:54 PM)
Low21 °F (Dec 11, 3:54 AM)64% (Dec 19, 2:54 PM)29.67 "Hg (Dec 16, 5:54 AM)
Average33 °F85%30.20 "Hg
* Reported Dec 7 7:54 AM — Dec 22 7:54 AM, Fort Wayne, Weather by CustomWeather, © 2014

Note: Actual official high and low records may vary slightly from our data, if they occured in-between our weather recording intervals... More about our weather records

Advertising

Fort Wayne weather history for previous 24 hours

 ConditionsComfort  
Time TempWeatherWind HumidityBarometerVisibility
7:54 AM
Dec 22
25 °FIce fog.8 mph88%30.05 "Hg4 mi
6:54 AM25 °FIce fog.7 mph88%30.07 "Hg5 mi
5:54 AM26 °FIce fog.7 mph88%30.06 "Hg5 mi
4:54 AM25 °FIce fog.7 mph88%30.07 "Hg5 mi
3:54 AM23 °FIce fog.7 mph88%30.09 "Hg5 mi
2:54 AM25 °FIce fog.5 mph88%30.11 "Hg5 mi
1:54 AM25 °FIce fog.6 mph88%30.11 "Hg4 mi
12:54 AM27 °FIce fog.7 mph89%30.13 "Hg6 mi
11:54 PM
Dec 21
26 °FPassing clouds.8 mph88%30.14 "Hg7 mi
10:54 PM28 °FPassing clouds.5 mph85%30.16 "Hg7 mi
9:54 PM29 °FPassing clouds.6 mph85%30.18 "Hg8 mi
8:54 PM27 °FPassing clouds.7 mph85%30.19 "Hg8 mi
7:54 PM28 °FPassing clouds.7 mph85%30.19 "Hg7 mi
6:54 PM29 °FIce fog.7 mph85%30.20 "Hg6 mi
5:54 PM31 °FPassing clouds.8 mph79%30.21 "Hg6 mi
4:54 PM33 °FPartly sunny.7 mph75%30.21 "Hg6 mi
3:54 PM35 °FScattered clouds.8 mph70%30.20 "Hg6 mi
2:54 PM35 °FScattered clouds.9 mph67%30.22 "Hg5 mi
1:54 PM35 °FScattered clouds.9 mph67%30.24 "Hg5 mi
12:54 PM34 °FOvercast.7 mph70%30.26 "Hg5 mi
11:54 AM32 °FOvercast.8 mph75%30.30 "Hg4 mi
10:54 AM32 °FOvercast.8 mph75%30.33 "Hg4 mi
9:54 AM30 °FIce fog.8 mph85%30.33 "Hg4 mi
Weather by CustomWeather, © 2014

See weather overviewHow to use our weather pages